Weather in Uskuch

Russia / Altai Republic     52°02′08″N   86°54′31″E
temp.,
°C
wind,
m/s
gust,
m/s
humid.,
%
clouds,
%
prec.,
mm/h
press.,
hPa
HPBL,
m
19 september, sun
sun1901:00+10wnw1298100 0.4 1012101
04:00+9nw1195100 0.1 101336
07:00+8n0093100 0.1 101217
10:00+11e1179100 0.0 1011449
13:00+16nne1163100 0.0 1008683
16:00+16nne116099 0.0 1006716
19:00+12nw218380 0.0 100611
22:00+9s2192100 0.0 100716
20 september, mon
mon2001:00+10w2291100 0.0 100745
04:00+8wnw3768100 0.0 10111017
07:00+4ssw2597100 2.7 1015593
10:00+7sw248263 0.6 1017906
13:00+8wnw346687 1.1 10171030
16:00+10nw125387 0.0 10161244
19:00+6sse117185 0.0 101612
22:00+5s1175100 0.0 101620
21 september, tue
tue2101:00+4sw1179100 0.0 101613
04:00+2w1280100 0.0 101746
07:00+2wnw1693100 0.1 1018460
10:00+2sw1399100 1.8 1019224
13:00+3w259492 3.1 1020579
16:00+5wsw3672100 0.4 10191323
19:00+3sw1278100 0.6 102126
22:00+1sw1186100 0.1 102320
22 september, wed
wed2201:000ssw229081 0.1 102331
04:00−2ssw229530 0.0 102425
07:00−3ssw11955 0.0 102512
10:00+4ssw116837 0.0 1024510
13:00+6wnw2252100 0.1 10231434
16:00+7nnw1250100 0.0 10221327
19:00+3ne116992 0.0 102210
22:00+1ese1178100 0.0 102210
23 september, thu
thu2301:000s1185100 0.0 102210
04:000ssw1184100 0.0 102113
07:000ssw0082100 0.0 102214
10:00+4nw1275100 0.0 1022561
13:00+5nnw2371100 0.1 1022971
16:00+5nnw2367100 0.1 1022962
19:00+2sse0087100 0.3 102447
22:00+1sw1195100 0.0 102459